TimeCST,TemperatureF,Dew PointF,Humidity,Sea Level PressureIn,VisibilityMPH,Wind Direction,Wind SpeedMPH,Gust SpeedMPH,PrecipitationIn,Events,Conditions,WindDirDegrees,DateUTC
12:15 AM,39.2,32.0,75,30.15,8.0,North,8.1,-,N/A,,Overcast,360,2013-01-02 06:15:00
12:35 AM,39.2,33.8,81,30.14,8.0,North,10.4,-,N/A,,Overcast,360,2013-01-02 06:35:00
12:55 AM,39.2,33.8,81,30.14,7.0,North,8.1,-,N/A,,Overcast,360,2013-01-02 06:55:00
1:15 AM,39.2,33.8,81,30.15,6.0,North,8.1,-,N/A,,Haze,350,2013-01-02 07:15:00
1:35 AM,39.2,33.8,81,30.14,7.0,NNW,9.2,-,N/A,,Overcast,340,2013-01-02 07:35:00
2:15 AM,39.2,32.0,75,30.16,5.0,NNW,8.1,-,N/A,,Haze,340,2013-01-02 08:15:00
2:35 AM,39.2,32.0,75,30.16,5.0,North,10.4,-,N/A,,Haze,350,2013-01-02 08:35:00
2:55 AM,39.2,32.0,75,30.17,5.0,NNW,8.1,-,N/A,,Haze,340,2013-01-02 08:55:00
3:15 AM,39.2,32.0,75,30.17,5.0,North,8.1,-,N/A,,Haze,360,2013-01-02 09:15:00
3:35 AM,37.4,32.0,81,30.18,7.0,NNE,5.8,-,N/A,,Overcast,20,2013-01-02 09:35:00
4:15 AM,37.4,32.0,81,30.18,5.0,NNW,10.4,-,N/A,,Haze,330,2013-01-02 10:15:00
4:35 AM,37.4,32.0,81,30.16,5.0,North,8.1,-,N/A,,Haze,360,2013-01-02 10:35:00
4:55 AM,37.4,32.0,81,30.17,5.0,North,9.2,-,N/A,,Haze,10,2013-01-02 10:55:00
5:15 AM,37.4,32.0,81,30.17,5.0,North,10.4,-,N/A,,Haze,10,2013-01-02 11:15:00
5:35 AM,37.4,32.0,81,30.19,6.0,North,10.4,-,N/A,,Haze,10,2013-01-02 11:35:00
5:55 AM,37.4,32.0,81,30.20,7.0,NNE,8.1,-,N/A,,Overcast,20,2013-01-02 11:55:00
6:15 AM,37.4,32.0,81,30.20,5.0,North,9.2,-,N/A,,Haze,350,2013-01-02 12:15:00
6:35 AM,37.4,32.0,81,30.19,3.0,North,9.2,-,N/A,,Haze,350,2013-01-02 12:35:00
6:55 AM,35.6,32.0,87,30.21,3.0,NNW,9.2,-,N/A,,Haze,340,2013-01-02 12:55:00
7:15 AM,35.6,30.2,81,30.21,4.0,North,11.5,-,N/A,,Haze,10,2013-01-02 13:15:00
7:35 AM,35.6,30.2,81,30.23,5.0,North,8.1,-,N/A,,Haze,350,2013-01-02 13:35:00
7:55 AM,35.6,30.2,81,30.22,5.0,NNW,9.2,-,N/A,,Haze,340,2013-01-02 13:55:00
8:15 AM,35.6,30.2,81,30.22,5.0,NNE,10.4,-,N/A,,Haze,20,2013-01-02 14:15:00
8:35 AM,35.6,30.2,81,30.24,6.0,North,9.2,-,N/A,,Haze,360,2013-01-02 14:35:00
9:15 AM,35.6,30.2,81,30.25,6.0,North,6.9,-,N/A,,Haze,10,2013-01-02 15:15:00
9:35 AM,35.6,30.2,81,30.25,8.0,North,8.1,-,N/A,,Overcast,350,2013-01-02 15:35:00
9:55 AM,35.6,30.2,81,30.25,8.0,NNE,5.8,-,N/A,,Overcast,30,2013-01-02 15:55:00
10:15 AM,37.4,32.0,81,30.25,7.0,NE,4.6,-,N/A,,Mostly Cloudy,50,2013-01-02 16:15:00
10:35 AM,37.4,32.0,81,30.25,6.0,NNW,8.1,-,N/A,,Haze,330,2013-01-02 16:35:00
10:55 AM,37.4,32.0,81,30.23,7.0,North,6.9,-,N/A,,Overcast,10,2013-01-02 16:55:00
11:15 AM,37.4,32.0,81,30.23,6.0,NNW,5.8,-,N/A,,Haze,330,2013-01-02 17:15:00
11:35 AM,37.4,32.0,81,30.23,7.0,NNW,5.8,-,N/A,,Overcast,330,2013-01-02 17:35:00
11:55 AM,37.4,32.0,81,30.22,6.0,NNW,6.9,-,N/A,,Haze,330,2013-01-02 17:55:00
12:15 PM,37.4,32.0,81,30.22,6.0,North,5.8,-,N/A,,Haze,350,2013-01-02 18:15:00
12:35 PM,37.4,32.0,81,30.22,6.0,NNW,8.1,-,N/A,,Haze,340,2013-01-02 18:35:00
12:55 PM,37.4,32.0,81,30.19,5.0,NNW,6.9,-,N/A,,Haze,330,2013-01-02 18:55:00
1:15 PM,37.4,32.0,81,30.19,5.0,North,6.9,-,N/A,,Haze,350,2013-01-02 19:15:00
1:35 PM,37.4,32.0,81,30.20,5.0,North,4.6,-,N/A,,Haze,350,2013-01-02 19:35:00
2:15 PM,37.4,32.0,81,30.20,5.0,North,4.6,-,N/A,,Haze,10,2013-01-02 20:15:00
2:35 PM,37.4,32.0,81,30.21,6.0,North,6.9,-,N/A,,Haze,360,2013-01-02 20:35:00
2:55 PM,37.4,32.0,81,30.20,6.0,North,6.9,-,N/A,,Haze,10,2013-01-02 20:55:00
3:15 PM,37.4,32.0,81,30.20,5.0,North,5.8,-,N/A,,Haze,10,2013-01-02 21:15:00
3:35 PM,35.6,32.0,87,30.20,5.0,North,5.8,-,N/A,,Haze,10,2013-01-02 21:35:00
3:55 PM,35.6,30.2,81,30.21,6.0,NNW,4.6,-,N/A,,Haze,340,2013-01-02 21:55:00
4:15 PM,35.6,32.0,87,30.21,6.0,NNW,8.1,-,N/A,,Haze,340,2013-01-02 22:15:00
4:35 PM,35.6,32.0,87,30.23,7.0,NNW,4.6,-,N/A,,Partly Cloudy,330,2013-01-02 22:35:00
5:15 PM,35.6,32.0,87,30.24,7.0,NNW,5.8,-,N/A,,Clear,330,2013-01-02 23:15:00
5:35 PM,35.6,32.0,87,30.24,7.0,Calm,Calm,-,N/A,,Clear,0,2013-01-02 23:35:00
5:55 PM,35.6,32.0,87,30.24,7.0,Calm,Calm,-,N/A,,Clear,0,2013-01-02 23:55:00
6:15 PM,35.6,32.0,87,30.26,7.0,NNW,3.5,-,N/A,,Partly Cloudy,330,2013-01-03 00:15:00
6:35 PM,35.6,32.0,87,30.25,7.0,Calm,Calm,-,N/A,,Partly Cloudy,0,2013-01-03 00:35:00
6:55 PM,35.6,32.0,87,30.25,7.0,Calm,Calm,-,N/A,,Partly Cloudy,0,2013-01-03 00:55:00
7:15 PM,35.6,32.0,87,30.26,7.0,NNW,5.8,-,N/A,,Clear,330,2013-01-03 01:15:00
7:35 PM,35.6,32.0,87,30.26,7.0,NNW,5.8,-,N/A,,Partly Cloudy,330,2013-01-03 01:35:00
7:55 PM,35.6,32.0,87,30.26,7.0,NNW,6.9,-,N/A,,Mostly Cloudy,340,2013-01-03 01:55:00
8:15 PM,35.6,32.0,87,30.26,7.0,NNW,5.8,-,N/A,,Scattered Clouds,330,2013-01-03 02:15:00
8:35 PM,35.6,32.0,87,30.26,7.0,NNW,5.8,-,N/A,,Mostly Cloudy,340,2013-01-03 02:35:00
8:55 PM,35.6,32.0,87,30.26,7.0,NNW,6.9,-,N/A,,Overcast,340,2013-01-03 02:55:00
9:15 PM,33.8,30.2,87,30.27,7.0,NNW,3.5,-,N/A,,Mostly Cloudy,340,2013-01-03 03:15:00
9:35 PM,33.8,30.2,87,30.28,7.0,NNW,4.6,-,N/A,,Scattered Clouds,340,2013-01-03 03:35:00
9:55 PM,33.8,30.2,87,30.28,7.0,NNW,4.6,-,N/A,,Partly Cloudy,340,2013-01-03 03:55:00
10:15 PM,33.8,30.2,87,30.27,7.0,North,3.5,-,N/A,,Clear,350,2013-01-03 04:15:00
10:35 PM,33.8,30.2,87,30.26,6.0,NNW,3.5,-,N/A,,Haze,340,2013-01-03 04:35:00
10:55 PM,33.8,30.2,87,30.27,6.0,NNW,5.8,-,N/A,,Clear,340,2013-01-03 04:55:00
11:15 PM,33.8,30.2,87,30.27,6.0,NNW,5.8,-,N/A,,Clear,340,2013-01-03 05:15:00
11:35 PM,33.8,30.2,87,30.26,6.0,NNW,4.6,-,N/A,,Clear,340,2013-01-03 05:35:00
11:55 PM,33.8,30.2,87,30.26,7.0,North,5.8,-,N/A,,Clear,350,2013-01-03 05:55:00